This is the latest recevied weather packets stored in our database for station/object BMCB-15. If no packets are shown the sender has not sent any weather packets the latest 10 day(s).
| Time | Temp. | Humidity | Pressure | Rain* | Wind** | Luminosity | Snow |
|---|---|---|---|---|---|---|---|
| 1777357237 | 8.33° C | 72% | 1022.4 hPa | 0 mm | - | 80 W/m² | - |
| 1777342237 | 8.89° C | 64% | 1022.7 hPa | 0 mm | - | 0 W/m² | - |
| 1777336238 | 10° C | 60% | 1022.7 hPa | 0 mm | - | 0 W/m² | - |
| 1777327843 | 11.67° C | 55% | 1022.7 hPa | 0 mm | - | 0 W/m² | - |
| 1777326647 | 11.67° C | 54% | 1022.6 hPa | 0 mm | - | 0 W/m² | - |
| 1777324849 | 12.22° C | 52% | 1022.6 hPa | 0 mm | - | 0 W/m² | - |
| 1777323647 | 12.78° C | 50% | 1022.6 hPa | 0 mm | - | 0 W/m² | - |
| 1777321846 | 12.78° C | 49% | 1022.7 hPa | 0 mm | - | 0 W/m² | - |
| 1777319446 | 13.89° C | 45% | 1022.7 hPa | 0 mm | - | 0 W/m² | - |
| 1777318244 | 14.44° C | 44% | 1022.6 hPa | 0 mm | - | 0 W/m² | - |
| 1777317648 | 14.44° C | 43% | 1022.6 hPa | 0 mm | - | 0 W/m² | - |
| 1777303843 | 18.89° C | 28% | 1022.7 hPa | 0 mm | - | 366 W/m² | - |
| 1777302042 | 18.33° C | 33% | 1023.2 hPa | 0 mm | - | 570 W/m² | - |
| 1777297839 | 18.33° C | 35% | 1024 hPa | 0 mm | - | 688 W/m² | - |
| 1777296039 | 18.33° C | 38% | 1024.3 hPa | 0 mm | - | 820 W/m² | - |
| 1777294838 | 17.78° C | 40% | 1024.5 hPa | 0 mm | - | 730 W/m² | - |
| 1777291840 | 16.67° C | 42% | 1024.8 hPa | 0 mm | - | 818 W/m² | - |
| 1777290638 | 16.11° C | 44% | 1025 hPa | 0 mm | - | 790 W/m² | - |
| 1777290038 | 16.11° C | 44% | 1025.1 hPa | 0 mm | - | 732 W/m² | - |
| 1777288840 | 16.11° C | 47% | 1025.3 hPa | 0 mm | - | 720 W/m² | - |
| 1777282238 | 13.89° C | 53% | 1026 hPa | 0 mm | - | 580 W/m² | - |
| 1777278037 | 12.22° C | 58% | 1026.2 hPa | 0 mm | - | 362 W/m² | - |
| 1777275638 | 10.56° C | 65% | 1026.4 hPa | 0 mm | - | 252 W/m² | - |
| 1777273239 | 9.44° C | 73% | 1026.4 hPa | 0 mm | - | 198 W/m² | - |
| 1777272638 | 8.89° C | 75% | 1026.5 hPa | 0 mm | - | 196 W/m² | - |
* Rain latest hour (hover to see other rain measurements)
** Current wind speed in m/s (hover to see current wind gust speed)